• In Czech Republic
  • List of Countries
  • For 7 days
  • Water Temperature
  • Satellite Maps
  • Weather Map
  • Weather Widgets
  • user-avatar
    Login

    Hourly Weather Midyat

    Today, 21 October, Saturday

    Time Temperature Precipitation Wind Pressure Humidity
    00:00 +16°C° 0 mm 1 mps 682 mmHg 22%
    01:00 +16°C° 0 mm 1 mps 682 mmHg 22%
    02:00 +15°C° 0 mm 1 mps 682 mmHg 22%
    03:00 +15°C° 0 mm 1 mps 682 mmHg 23%
    04:00 +14°C° 0 mm 1 mps 681 mmHg 24%
    05:00 +14°C° 0 mm 1 mps 681 mmHg 24%
    06:00 +14°C° 0 mm 1 mps 681 mmHg 25%
    07:00 +15°C° 0 mm 1 mps 682 mmHg 23%
    08:00 +18°C° 0 mm 1 mps 682 mmHg 20%
    09:00 +20°C° 0 mm 1 mps 682 mmHg 18%
    10:00 +21°C° 0 mm 1 mps 683 mmHg 17%
    11:00 +21°C° 0 mm 2 mps 683 mmHg 16%
    12:00 +24°C° 0 mm 2 mps 683 mmHg 15%
    13:00 +24°C° 0 mm 2 mps 682 mmHg 14%
    14:00 +24°C° 0 mm 3 mps 682 mmHg 14%
    15:00 +25°C° 0 mm 3 mps 681 mmHg 14%
    16:00 +24°C° 0 mm 2 mps 681 mmHg 16%
    17:00 +21°C° 0 mm 2 mps 681 mmHg 17%
    18:00 +21°C° 0 mm 1 mps 680 mmHg 19%
    19:00 +20°C° 0 mm 1 mps 680 mmHg 20%
    20:00 +19°C° 0 mm 1 mps 680 mmHg 20%
    21:00 +19°C° 0 mm 1 mps 680 mmHg 21%
    22:00 +18°C° 0 mm 1 mps 680 mmHg 22%
    23:00 +18°C° 0 mm 1 mps 680 mmHg 22%

    Tomorrow, 22 October, Sunday

    Time Temperature Precipitation Wind Pressure Humidity
    00:00 +16°C° 0 mm 1 mps 680 mmHg 23%
    01:00 +16°C° 0 mm 1 mps 680 mmHg 23%
    02:00 +15°C° 0 mm 1 mps 680 mmHg 23%
    03:00 +15°C° 0 mm 1 mps 679 mmHg 24%
    04:00 +15°C° 0 mm 1 mps 679 mmHg 24%
    05:00 +14°C° 0 mm 1 mps 679 mmHg 25%
    06:00 +14°C° 0 mm 1 mps 679 mmHg 25%
    07:00 +16°C° 0 mm 1 mps 680 mmHg 23%
    08:00 +18°C° 0 mm 1 mps 680 mmHg 20%
    09:00 +20°C° 0 mm 1 mps 681 mmHg 18%
    10:00 +21°C° 0 mm 1 mps 681 mmHg 17%
    11:00 +23°C° 0 mm 2 mps 681 mmHg 16%
    12:00 +24°C° 0 mm 2 mps 681 mmHg 15%
    13:00 +24°C° 0 mm 2 mps 680 mmHg 15%
    14:00 +25°C° 0 mm 2 mps 680 mmHg 14%
    15:00 +25°C° 0 mm 2 mps 679 mmHg 14%
    16:00 +24°C° 0 mm 2 mps 679 mmHg 15%
    17:00 +21°C° 0 mm 2 mps 679 mmHg 17%
    18:00 +21°C° 0 mm 1 mps 679 mmHg 18%
    19:00 +20°C° 0 mm 1 mps 679 mmHg 19%
    20:00 +20°C° 0 mm 1 mps 679 mmHg 20%
    21:00 +19°C° 0 mm 1 mps 679 mmHg 21%
    22:00 +18°C° 0 mm 1 mps 679 mmHg 22%
    23:00 +18°C° 0 mm 1 mps 679 mmHg 23%

    Day after tomorrow, 23 October, Monday

    Time Temperature Precipitation Wind Pressure Humidity
    00:00 +16°C° 0 mm 1 mps 679 mmHg 24%
    01:00 +16°C° 0 mm 1 mps 679 mmHg 25%
    02:00 +15°C° 0 mm 1 mps 679 mmHg 25%
    03:00 +15°C° 0 mm 1 mps 679 mmHg 26%
    04:00 +14°C° 0 mm 1 mps 679 mmHg 27%
    05:00 +14°C° 0 mm 1 mps 679 mmHg 27%
    06:00 +14°C° 0 mm 1 mps 679 mmHg 28%
    07:00 +15°C° 0 mm 1 mps 679 mmHg 25%
    08:00 +18°C° 0 mm 1 mps 680 mmHg 22%
    09:00 +20°C° 0 mm 1 mps 681 mmHg 20%
    10:00 +20°C° 0 mm 2 mps 681 mmHg 18%
    11:00 +23°C° 0 mm 2 mps 681 mmHg 17%
    12:00 +24°C° 0 mm 2 mps 681 mmHg 16%
    13:00 +24°C° 0 mm 2 mps 681 mmHg 15%
    14:00 +25°C° 0 mm 3 mps 680 mmHg 15%
    15:00 +25°C° 0 mm 3 mps 680 mmHg 14%
    16:00 +24°C° 0 mm 2 mps 680 mmHg 15%
    17:00 +23°C° 0 mm 2 mps 680 mmHg 17%
    18:00 +20°C° 0 mm 2 mps 680 mmHg 18%
    19:00 +20°C° 0 mm 2 mps 680 mmHg 20%
    20:00 +20°C° 0 mm 1 mps 680 mmHg 21%
    21:00 +19°C° 0 mm 1 mps 680 mmHg 22%
    22:00 +19°C° 0 mm 1 mps 680 mmHg 23%
    23:00 +18°C° 0 mm 1 mps 680 mmHg 23%

    24 October, Tuesday

    Time Temperature Precipitation Wind Pressure Humidity
    00:00 +18°C° 0 mm 1 mps 680 mmHg 24%
    01:00 +18°C° 0 mm 1 mps 680 mmHg 24%
    02:00 +16°C° 0 mm 1 mps 679 mmHg 25%
    03:00 +16°C° 0 mm 1 mps 679 mmHg 25%
    04:00 +16°C° 0 mm 1 mps 679 mmHg 26%
    05:00 +15°C° 0 mm 1 mps 680 mmHg 27%
    06:00 +15°C° 0 mm 1 mps 680 mmHg 27%
    07:00 +17°C° 0 mm 2 mps 680 mmHg 25%
    08:00 +18°C° 0 mm 2 mps 681 mmHg 22%
    09:00 +20°C° 0 mm 2 mps 682 mmHg 19%
    10:00 +22°C° 0 mm 3 mps 682 mmHg 18%
    11:00 +24°C° 0 mm 3 mps 682 mmHg 17%
    12:00 +25°C° 0 mm 4 mps 682 mmHg 16%
    13:00 +26°C° 0 mm 4 mps 682 mmHg 15%
    14:00 +26°C° 0 mm 5 mps 682 mmHg 15%
    15:00 +27°C° 0 mm 5 mps 681 mmHg 15%
    16:00 +25°C° 0 mm 4 mps 681 mmHg 16%
    17:00 +23°C° 0 mm 4 mps 681 mmHg 18%
    18:00 +22°C° 0 mm 3 mps 681 mmHg 19%
    19:00 +21°C° 0 mm 3 mps 681 mmHg 20%
    20:00 +21°C° 0 mm 3 mps 682 mmHg 20%
    21:00 +20°C° 0 mm 3 mps 682 mmHg 21%
    22:00 +20°C° 0 mm 3 mps 682 mmHg 21%
    23:00 +20°C° 0 mm 3 mps 682 mmHg 21%

    25 October, Wednesday

    Time Temperature Precipitation Wind Pressure Humidity
    00:00 +19°C° 0 mm 3 mps 682 mmHg 22%
    01:00 +19°C° 0 mm 3 mps 682 mmHg 22%
    02:00 +19°C° 0 mm 3 mps 682 mmHg 23%
    03:00 +18°C° 0 mm 3 mps 682 mmHg 23%
    04:00 +18°C° 0 mm 3 mps 682 mmHg 24%
    05:00 +18°C° 0 mm 3 mps 682 mmHg 25%
    06:00 +17°C° 0 mm 3 mps 682 mmHg 26%
    07:00 +19°C° 0 mm 3 mps 682 mmHg 23%
    08:00 +21°C° 0 mm 3 mps 683 mmHg 21%
    09:00 +22°C° 0 mm 4 mps 684 mmHg 19%
    10:00 +25°C° 0 mm 4 mps 684 mmHg 17%
    11:00 +27°C° 0 mm 5 mps 684 mmHg 15%
    12:00 +28°C° 0 mm 6 mps 684 mmHg 13%
    13:00 +28°C° 0 mm 6 mps 683 mmHg 13%
    14:00 +29°C° 0 mm 7 mps 683 mmHg 13%
    15:00 +29°C° 0 mm 7 mps 683 mmHg 12%
    16:00 +27°C° 0 mm 5 mps 683 mmHg 14%
    17:00 +26°C° 0 mm 4 mps 683 mmHg 15%
    18:00 +24°C° 0 mm 3 mps 682 mmHg 16%
    19:00 +22°C° 0 mm 3 mps 683 mmHg 17%
    20:00 +23°C° 0 mm 2 mps 683 mmHg 18%
    21:00 +21°C° 0 mm 2 mps 683 mmHg 19%
    22:00 +20°C° 0 mm 2 mps 683 mmHg 20%
    23:00 +20°C° 0 mm 2 mps 683 mmHg 21%

    26 October, Thursday

    Time Temperature Precipitation Wind Pressure Humidity
    00:00 +19°C° 0 mm 2 mps 682 mmHg 22%
    01:00 +20°C° 0 mm 1 mps 682 mmHg 23%
    02:00 +19°C° 0 mm 1 mps 682 mmHg 24%
    03:00 +19°C° 0 mm 1 mps 682 mmHg 25%
    04:00 +18°C° 0 mm 1 mps 682 mmHg 25%
    05:00 +18°C° 0 mm 1 mps 682 mmHg 26%
    06:00 +18°C° 0 mm 1 mps 681 mmHg 27%
    07:00 +19°C° 0 mm 1 mps 682 mmHg 24%
    08:00 +21°C° 0 mm 1 mps 683 mmHg 22%
    09:00 +23°C° 0 mm 1 mps 683 mmHg 19%
    10:00 +24°C° 0 mm 2 mps 683 mmHg 18%
    11:00 +25°C° 0 mm 3 mps 683 mmHg 17%
    12:00 +27°C° 0 mm 3 mps 683 mmHg 16%
    13:00 +27°C° 0 mm 4 mps 683 mmHg 16%
    14:00 +27°C° 0 mm 4 mps 683 mmHg 16%
    15:00 +27°C° 0 mm 4 mps 682 mmHg 16%
    16:00 +26°C° 0 mm 4 mps 682 mmHg 19%
    17:00 +24°C° 0 mm 3 mps 682 mmHg 21%
    18:00 +23°C° 0 mm 2 mps 681 mmHg 23%
    19:00 +21°C° 0 mm 2 mps 681 mmHg 25%
    20:00 +21°C° 0 mm 2 mps 681 mmHg 26%
    21:00 +21°C° 0 mm 1 mps 681 mmHg 28%
    22:00 +20°C° 0 mm 1 mps 681 mmHg 29%
    23:00 +20°C° 0 mm 1 mps 681 mmHg 30%
    Show more